GBOOT KDWS-KLAL

Flight info

Callsign GBOOT
Flight time N/A
Altitude 5000
Route
Aircraft C172/L-S/U1

Departure

Time N/A
Airport KDWS

Arrival

Time 2026-04-21 19:44
Airport Lakeland Linder International Airport (KLAL)
Time Latitude Longitude Altitude Speed Heading
2026-04-21 19:09 28.40249 -81.57406 123 ft 0 kts 158°
2026-04-21 19:16 28.40236 -81.57398 123 ft 6 kts 152°
2026-04-21 19:17 28.40155 -81.57300 122 ft 12 kts 109°
2026-04-21 19:17 28.40106 -81.57198 123 ft 16 kts 127°
2026-04-21 19:17 28.40073 -81.57173 124 ft 3 kts 160°
2026-04-21 19:18 28.40020 -81.57151 125 ft 12 kts 156°
2026-04-21 19:18 28.39919 -81.57121 125 ft 17 kts 162°
2026-04-21 19:18 28.39798 -81.57071 125 ft 19 kts 157°
2026-04-21 19:18 28.39677 -81.57038 125 ft 13 kts 165°
2026-04-21 19:19 28.39647 -81.57020 125 ft 0 kts 153°
2026-04-21 19:19 28.39642 -81.57020 125 ft 5 kts 191°
2026-04-21 19:19 28.39687 -81.57059 124 ft 19 kts 314°
2026-04-21 19:19 28.39825 -81.57217 125 ft 32 kts 318°
2026-04-21 19:20 28.39859 -81.57276 125 ft 5 kts 110°
2026-04-21 19:20 28.39849 -81.57256 125 ft 0 kts 125°
2026-04-21 19:20 28.39807 -81.57198 124 ft 33 kts 130°
2026-04-21 19:21 28.39556 -81.56953 235 ft 51 kts 139°
2026-04-21 19:21 28.39205 -81.56757 354 ft 61 kts 149°
2026-04-21 19:21 28.38740 -81.56726 477 ft 81 kts 195°
2026-04-21 19:21 28.38227 -81.57160 603 ft 93 kts 225°
2026-04-21 19:22 28.37926 -81.57861 726 ft 102 kts 258°
2026-04-21 19:22 28.37743 -81.58670 850 ft 104 kts 258°
2026-04-21 19:22 28.37569 -81.59483 1002 ft 106 kts 258°
2026-04-21 19:22 28.37413 -81.60308 1166 ft 107 kts 263°
2026-04-21 19:23 28.37296 -81.61156 1325 ft 107 kts 259°
2026-04-21 19:23 28.37163 -81.62011 1466 ft 109 kts 265°
2026-04-21 19:23 28.37091 -81.62883 1597 ft 112 kts 266°
2026-04-21 19:23 28.36968 -81.63741 1783 ft 107 kts 256°
2026-04-21 19:24 28.36786 -81.64643 1809 ft 120 kts 261°
2026-04-21 19:24 28.36617 -81.65539 1982 ft 115 kts 259°
2026-04-21 19:24 28.36414 -81.66481 2004 ft 125 kts 259°
2026-04-21 19:24 28.36232 -81.67475 1973 ft 134 kts 263°
2026-04-21 19:25 28.36072 -81.68512 2043 ft 130 kts 261°
2026-04-21 19:25 28.35861 -81.69529 2043 ft 134 kts 256°
2026-04-21 19:25 28.35608 -81.70585 2035 ft 136 kts 252°
2026-04-21 19:25 28.35379 -81.71605 2093 ft 134 kts 257°
2026-04-21 19:26 28.35130 -81.72649 2098 ft 135 kts 252°
2026-04-21 19:26 28.34802 -81.73635 2128 ft 135 kts 246°
2026-04-21 19:26 28.34440 -81.74630 2145 ft 135 kts 245°
2026-04-21 19:26 28.34079 -81.75617 2186 ft 134 kts 246°
2026-04-21 19:27 28.33736 -81.76606 2196 ft 134 kts 249°
2026-04-21 19:27 28.33423 -81.77605 2245 ft 132 kts 249°
2026-04-21 19:27 28.33096 -81.78602 2244 ft 135 kts 248°
2026-04-21 19:27 28.32751 -81.79590 2283 ft 132 kts 246°
2026-04-21 19:28 28.32409 -81.80568 2258 ft 134 kts 248°
2026-04-21 19:28 28.32082 -81.81564 2254 ft 134 kts 250°
2026-04-21 19:28 28.31807 -81.82574 2243 ft 135 kts 252°
2026-04-21 19:28 28.31537 -81.83598 2236 ft 134 kts 254°
2026-04-21 19:29 28.31314 -81.84641 2235 ft 134 kts 256°
2026-04-21 19:29 28.30952 -81.85611 2192 ft 135 kts 228°
2026-04-21 19:29 28.30190 -81.86180 2126 ft 128 kts 186°
2026-04-21 19:29 28.29348 -81.86194 2162 ft 115 kts 163°
2026-04-21 19:30 28.28538 -81.86081 2146 ft 118 kts 168°
2026-04-21 19:30 28.27702 -81.86054 2148 ft 118 kts 170°
2026-04-21 19:30 28.26872 -81.86099 2138 ft 121 kts 176°
2026-04-21 19:30 28.26025 -81.86212 2139 ft 121 kts 177°
2026-04-21 19:31 28.25191 -81.86374 2124 ft 121 kts 182°
2026-04-21 19:31 28.24360 -81.86544 2043 ft 121 kts 180°
2026-04-21 19:31 28.23510 -81.86705 1951 ft 121 kts 180°
2026-04-21 19:31 28.22691 -81.86695 1844 ft 115 kts 158°
2026-04-21 19:32 28.21966 -81.86361 1774 ft 108 kts 141°
2026-04-21 19:32 28.21328 -81.85941 1704 ft 107 kts 139°
2026-04-21 19:32 28.20680 -81.85494 1607 ft 107 kts 137°
2026-04-21 19:32 28.20066 -81.85022 1553 ft 105 kts 135°
2026-04-21 19:33 28.19672 -81.84681 1477 ft 106 kts 132°
2026-04-21 19:33 28.18974 -81.83910 1442 ft 102 kts 124°
2026-04-21 19:33 28.18510 -81.83317 1421 ft 100 kts 123°
2026-04-21 19:33 28.18031 -81.82723 1389 ft 100 kts 124°
2026-04-21 19:34 28.17550 -81.82125 1335 ft 104 kts 125°
2026-04-21 19:34 28.17036 -81.81532 1321 ft 102 kts 128°
2026-04-21 19:34 28.16418 -81.81103 1260 ft 116 kts 158°
2026-04-21 19:34 28.15590 -81.81185 1276 ft 123 kts 191°
2026-04-21 19:35 28.14775 -81.81578 1248 ft 124 kts 197°
2026-04-21 19:35 28.13215 -81.82505 1229 ft 127 kts 201°
2026-04-21 19:35 28.12445 -81.82992 1273 ft 125 kts 203°
2026-04-21 19:36 28.11802 -81.83683 1315 ft 128 kts 237°
2026-04-21 19:36 28.11392 -81.84621 1259 ft 136 kts 245°
2026-04-21 19:36 28.10992 -81.85594 1291 ft 132 kts 244°
2026-04-21 19:36 28.10622 -81.86559 1282 ft 135 kts 246°
2026-04-21 19:37 28.10217 -81.87551 1256 ft 136 kts 243°
2026-04-21 19:37 28.09802 -81.88495 1307 ft 131 kts 243°
2026-04-21 19:37 28.09421 -81.89463 1270 ft 135 kts 247°
2026-04-21 19:37 28.09083 -81.90448 1317 ft 130 kts 251°
2026-04-21 19:38 28.08790 -81.91450 1271 ft 136 kts 260°
2026-04-21 19:38 28.08788 -81.92491 1327 ft 130 kts 279°
2026-04-21 19:38 28.08891 -81.93180 1263 ft 136 kts 290°
2026-04-21 19:38 28.09443 -81.94435 1285 ft 127 kts 301°
2026-04-21 19:39 28.09437 -81.95497 1102 ft 145 kts 248°
2026-04-21 19:39 28.08880 -81.96331 1261 ft 124 kts 222°
2026-04-21 19:39 28.08284 -81.97108 1244 ft 130 kts 226°
2026-04-21 19:39 28.07706 -81.97895 1261 ft 130 kts 228°
2026-04-21 19:40 28.07121 -81.98687 1268 ft 131 kts 225°
2026-04-21 19:40 28.06519 -81.99470 1298 ft 129 kts 228°
2026-04-21 19:40 28.05952 -82.00281 1260 ft 133 kts 227°
2026-04-21 19:40 28.05378 -82.01080 1299 ft 129 kts 224°
2026-04-21 19:41 28.04605 -82.01529 1212 ft 122 kts 177°
2026-04-21 19:41 28.03788 -82.01571 1232 ft 111 kts 172°
2026-04-21 19:41 28.03042 -82.01592 1248 ft 104 kts 171°
2026-04-21 19:41 28.02326 -82.01629 1237 ft 102 kts 176°
2026-04-21 19:42 28.01617 -82.01680 1213 ft 98 kts 172°
2026-04-21 19:42 28.00952 -82.01712 1176 ft 93 kts 171°
2026-04-21 19:42 28.00381 -82.01939 1195 ft 86 kts 212°
2026-04-21 19:42 28.00131 -82.02477 1115 ft 76 kts 259°
2026-04-21 19:43 28.00024 -82.03068 963 ft 76 kts 261°
2026-04-21 19:43 27.99866 -82.03627 811 ft 74 kts 230°
2026-04-21 19:43 27.99425 -82.03937 594 ft 75 kts 172°
2026-04-21 19:43 27.99063 -82.03705 410 ft 57 kts 98°
2026-04-21 19:44 27.99037 -82.03303 336 ft 47 kts 87°
2026-04-21 19:44 27.99037 -82.02899 246 ft 51 kts 86°
2026-04-21 19:44 27.99036 -82.02503 211 ft 52 kts 84°
2026-04-21 19:44 27.99037 -82.02118 155 ft 42 kts 86°
2026-04-21 19:45 27.99040 -82.01847 158 ft 28 kts 89°
2026-04-21 19:45 27.99042 -82.01659 158 ft 20 kts 88°
2026-04-21 19:45 27.99044 -82.01496 158 ft 27 kts 93°
2026-04-21 19:45 27.99041 -82.01263 161 ft 32 kts 85°
2026-04-21 19:46 27.99041 -82.01004 162 ft 31 kts 90°
2026-04-21 19:46 27.99037 -82.00790 162 ft 24 kts 113°
2026-04-21 19:46 27.98907 -82.00760 161 ft 20 kts 172°
2026-04-21 19:46 27.98756 -82.00749 161 ft 22 kts 182°
2026-04-21 19:47 27.98656 -82.00806 161 ft 21 kts 265°
2026-04-21 19:47 27.98616 -82.00995 158 ft 26 kts 249°
2026-04-21 19:47 27.98587 -82.01077 158 ft 9 kts 251°
2026-04-21 19:47 27.98559 -82.01164 158 ft 14 kts 249°
2026-04-21 19:48 27.98534 -82.01273 158 ft 8 kts 273°
2026-04-21 19:48 27.98561 -82.01315 158 ft 9 kts 336°
2026-04-21 19:48 27.98569 -82.01359 158 ft 4 kts 210°
2026-04-21 19:48 27.98560 -82.01362 158 ft 0 kts 185°